GW0339 Weather Reports


time (UTC)temp
C
wind
direction
speed
KPH
gust
KPH
rain 1hr
cm
rain 24hr
cm
rain mn
cm
humidity
%
barometer
mb
20260510004912 13 199 0.0 0.0 0.00 0.05 0.03 93 1033.6
20260510003917 13 227 0.0 0.0 0.00 0.05 0.03 93 1033.7
20260510002920 13 200 0.0 0.0 0.00 0.05 0.03 94 1033.6
20260510000748 13 267 0.0 0.0 0.00 0.05 0.03 94 1033.7
20260509235807 13 283 0.0 0.0 0.00 0.05 0.03 94 1033.7
20260509233600 13 242 0.0 0.0 0.00 0.05 0.03 94 1033.7
20260509232550 13 290 0.0 0.0 0.00 0.05 0.03 94 1033.7
20260509225306 13 252 0.0 0.0 0.00 0.05 0.03 94 1033.4
20260509224318 13 207 0.0 0.0 0.00 0.05 0.03 94 1033.4
20260509222201 12 302 0.0 0.0 0.00 0.05 0.03 94 1033.2
20260509221147 12 318 0.0 0.0 0.00 0.05 0.03 94 1033.2
20260509220155 12 318 0.0 0.0 0.00 0.05 0.03 94 1033.0
20260509215152 12 318 0.0 0.0 0.00 0.05 0.03 94 1032.8
20260509214144 12 338 0.0 0.0 0.00 0.05 0.03 94 1032.6
20260509210813 12 177 0.0 0.0 0.00 0.05 0.03 94 1032.2
20260509205833 12 177 0.0 0.0 0.00 0.08 0.03 94 1032.2
20260509204836 12 177 0.0 0.0 0.00 0.08 0.03 94 1032.0
20260509203830 12 177 0.0 0.0 0.00 0.08 0.03 94 1031.9
20260509202836 12 177 0.0 0.0 0.00 0.08 0.03 94 1031.8
20260509201813 12 177 0.0 0.0 0.00 0.08 0.03 94 1031.8
20260509200807 12 177 0.0 0.0 0.00 0.08 0.03 94 1031.7
20260509195741 12 177 0.0 0.0 0.00 0.08 0.03 94 1031.7
20260509194754 12 177 0.0 0.0 0.00 0.08 0.03 94 1031.6
20260509193817 12 194 0.0 0.0 0.00 0.08 0.03 93 1031.3
20260509190516 12 199 0.0 0.0 0.00 0.10 0.03 93 1031.1
20260509185509 12 186 0.0 0.0 0.00 0.13 0.03 93 1031.0
20260509184457 12 185 0.0 0.0 0.00 0.13 0.03 93 1030.9
20260509183451 12 223 0.0 0.0 0.00 0.13 0.03 93 1030.9
20260509182420 13 204 0.0 4.8 0.00 0.10 0.03 93 1030.9
20260509181352 13 222 0.0 0.0 0.00 0.10 0.00 93 1030.8
20260509180318 13 194 0.0 3.2 0.00 0.10 0.00 93 1030.7
20260509174203 13 213 0.0 0.0 0.00 0.10 0.00 93 1030.7
20260509173137 13 171 1.6 9.7 0.00 0.10 0.00 93 1030.7
20260509172157 13 182 3.2 9.7 0.00 0.10 0.00 93 1030.7
20260509171123 13 188 0.0 3.2 0.00 0.10 0.00 93 1030.7
20260509170107 13 181 0.0 0.0 0.00 0.13 0.00 92 1030.8
20260509164030 13 188 1.6 6.4 0.00 0.13 0.00 92 1030.8
20260509163031 13 171 1.6 6.4 0.00 0.15 0.00 92 1030.8
20260509162049 13 193 1.6 6.4 0.00 0.15 0.00 92 1030.9
20260509161024 13 190 3.2 12.9 0.00 0.15 0.00 91 1030.9
20260509160031 13 168 4.8 12.9 0.00 0.13 0.00 91 1031.0
20260509155053 13 165 4.8 12.9 0.00 0.13 0.00 91 1030.8
20260509154048 13 196 4.8 12.9 0.00 0.13 0.00 92 1030.9
20260509153049 13 191 3.2 8.0 0.00 0.13 0.00 92 1030.9
20260509152035 13 178 3.2 9.7 0.00 0.13 0.00 92 1030.9
20260509151005 13 188 1.6 9.7 0.00 0.13 0.00 92 1030.9
20260509150027 13 188 0.0 0.0 0.00 0.13 0.00 92 1031.0
20260509145038 13 154 0.0 6.4 0.00 0.13 0.00 92 1031.0
20260509144030 13 95 0.0 0.0 0.00 0.13 0.00 92 1031.0
20260509143005 13 160 0.0 0.0 0.00 0.13 0.00 92 1031.0
20260509142012 13 180 0.0 1.6 0.00 0.13 0.00 92 1031.1
20260509140939 13 182 0.0 0.0 0.00 0.13 0.00 92 1031.3
20260509135959 13 182 0.0 0.0 0.00 0.13 0.13 92 1031.2
20260509134944 13 182 0.0 0.0 0.00 0.13 0.13 92 1031.2
20260509133926 13 166 0.0 0.0 0.00 0.13 0.13 92 1031.2
20260509132947 13 180 0.0 0.0 0.00 0.13 0.13 92 1031.2
20260509132012 13 180 0.0 0.0 0.00 0.13 0.13 92 1031.1
20260509131014 13 160 0.0 0.0 0.00 0.13 0.13 92 1031.3
20260509130014 13 182 0.0 4.8 0.00 0.13 0.13 92 1031.3
20260509124944 13 162 0.0 0.0 0.00 0.13 0.13 91 1031.3
20260509123926 13 162 0.0 0.0 0.00 0.13 0.13 91 1031.4
20260509122908 13 300 0.0 0.0 0.00 0.13 0.13 91 1031.4
20260509121838 13 300 0.0 0.0 0.00 0.13 0.13 91 1031.3
20260509120820 13 300 0.0 0.0 0.00 0.13 0.13 91 1031.3
20260509115839 13 257 0.0 0.0 0.00 0.13 0.13 91 1031.3
20260509114855 13 181 0.0 0.0 0.00 0.13 0.13 91 1031.3
20260509113912 13 181 0.0 0.0 0.00 0.13 0.13 91 1031.2
20260509111813 13 181 0.0 0.0 0.00 0.13 0.13 91 1031.0
20260509110814 13 180 0.0 0.0 0.00 0.13 0.13 91 1030.9
20260509105754 13 194 0.0 0.0 0.00 0.13 0.13 91 1031.0
20260509104811 13 194 0.0 0.0 0.00 0.13 0.13 91 1030.9
20260509103753 13 194 0.0 0.0 0.00 0.13 0.13 91 1030.7
20260509102741 13 175 0.0 0.0 0.00 0.13 0.13 90 1030.7
20260509101745 13 187 0.0 0.0 0.00 0.13 0.13 90 1030.8
20260509100726 13 180 0.0 3.2 0.00 0.13 0.13 90 1030.8
20260509095747 13 175 1.6 0.0 0.00 0.13 0.13 90 1030.7
20260509094735 13 167 0.0 4.8 0.00 0.13 0.13 90 1030.6
20260509093757 13 182 0.0 0.0 0.00 0.13 0.13 89 1030.6
20260509092725 13 186 1.6 4.8 0.00 0.13 0.13 89 1030.5
20260509091705 13 180 0.0 4.8 0.00 0.13 0.13 88 1030.4
20260509085526 13 188 1.6 4.8 0.00 0.13 0.13 87 1030.4
20260509084515 13 177 0.0 4.8 0.00 0.13 0.13 86 1030.3
20260509083450 13 185 1.6 8.0 0.00 0.13 0.13 86 1030.2
20260509082459 14 182 1.6 8.0 0.00 0.13 0.13 85 1030.1
20260509081458 14 190 1.6 8.0 0.00 0.13 0.13 85 1030.0
20260509080518 14 186 1.6 6.4 0.00 0.13 0.13 85 1029.9
20260509075522 14 180 1.6 9.7 0.00 0.13 0.13 86 1029.8
20260509074539 14 189 3.2 9.7 0.00 0.13 0.13 86 1029.8
20260509072344 14 177 3.2 9.7 0.00 0.13 0.13 86 1029.5
20260509071408 14 188 3.2 9.7 0.00 0.13 0.13 86 1029.4
20260509070357 15 175 1.6 6.4 0.00 0.13 0.13 87 1029.4
20260509065421 15 167 1.6 6.4 0.00 0.13 0.13 87 1029.3
20260509064357 14 173 1.6 8.0 0.00 0.13 0.13 87 1029.3
20260509063409 14 184 1.6 8.0 0.00 0.13 0.13 87 1029.3
20260509062430 14 183 1.6 6.4 0.00 0.13 0.13 87 1029.3
20260509061435 14 175 0.0 0.0 0.00 0.13 0.13 87 1029.2
20260509060418 15 192 0.0 1.6 0.00 0.13 0.13 88 1029.1
20260509055433 15 207 0.0 6.4 0.00 0.13 0.13 89 1029.2
20260509054437 14 175 0.0 6.4 0.00 0.13 0.13 89 1029.1
20260509053403 14 232 0.0 0.0 0.00 0.13 0.13 90 1029.1
20260509052341 14 152 0.0 9.7 0.00 0.13 0.13 89 1029.1
20260509051325 14 163 3.2 12.9 0.00 0.13 0.13 88 1029.1
20260509050344 14 178 4.8 12.9 0.00 0.13 0.13 87 1029.2
20260509044251 14 201 3.2 12.9 0.00 0.13 0.13 88 1029.2
20260509043258 14 171 4.8 14.5 0.00 0.13 0.13 88 1029.2
20260509042301 14 194 6.4 14.5 0.00 0.13 0.13 88 1029.2
20260509041249 14 167 4.8 12.9 0.00 0.13 0.13 89 1029.2
20260509040228 14 188 4.8 9.7 0.00 0.13 0.13 91 1029.2
20260509034019 14 184 1.6 6.4 0.00 0.13 0.13 93 1029.2
20260509032949 13 192 1.6 11.3 0.00 0.13 0.13 92 1029.2
20260509031951 13 189 3.2 11.3 0.00 0.13 0.13 92 1029.3
20260509030933 13 179 3.2 9.7 0.00 0.13 0.13 92 1029.4
20260509025927 13 171 0.0 8.0 0.00 0.13 0.13 93 1029.6
20260509024904 13 211 1.6 8.0 0.00 0.13 0.13 93 1029.7
20260509023901 13 178 1.6 8.0 0.00 0.13 0.13 93 1029.9
20260509022844 13 178 1.6 8.0 0.00 0.13 0.13 93 1029.9
20260509021814 13 162 1.6 8.0 0.00 0.13 0.13 93 1030.1
20260509020743 13 218 0.0 4.8 0.00 0.13 0.13 93 1030.1
20260509015744 13 195 3.2 8.0 0.00 0.13 0.13 93 1030.2
20260509014808 13 221 3.2 12.9 0.00 0.13 0.13 93 1030.2
20260509013807 13 192 4.8 12.9 0.00 0.15 0.13 94 1030.2
20260509012754 13 182 3.2 9.7 0.00 0.15 0.13 94 1030.2
20260509011738 13 165 0.0 6.4 0.00 0.13 0.10 94 1030.2